Time,TemperatureF,DewpointF,PressureIn,WindDirection,WindDirectionDegrees,WindSpeedMPH,WindSpeedGustMPH,Humidity,HourlyPrecipIn,Conditions,Clouds,dailyrainin,SoftwareType,DateUTC
2013-07-02 00:02:00,78.8,54.4,29.76,East,89,16.0,16.0,43,0.00,,,0.00,Wunderground v.1.15,2013-07-02 07:02:00,
2013-07-02 00:07:00,76.5,55.3,29.77,ESE,118,13.0,26.0,48,0.00,,,0.00,Wunderground v.1.15,2013-07-02 07:07:00,
2013-07-02 00:13:00,73.3,56.2,29.78,ESE,107,14.0,19.0,55,0.00,,,0.00,Wunderground v.1.15,2013-07-02 07:13:00,
2013-07-02 00:18:00,72.2,57.1,29.77,ESE,121,17.0,19.0,59,0.00,,,0.00,Wunderground v.1.15,2013-07-02 07:18:00,
2013-07-02 00:23:00,71.9,55.8,29.76,SSE,147,15.0,22.0,57,0.00,,,0.00,Wunderground v.1.15,2013-07-02 07:23:00,
2013-07-02 00:29:00,71.4,55.9,29.76,ESE,109,16.0,24.0,58,0.00,,,0.00,Wunderground v.1.15,2013-07-02 07:29:00,
2013-07-02 00:34:00,70.1,56.5,29.77,ESE,104,8.0,18.0,62,0.00,,,0.00,Wunderground v.1.15,2013-07-02 07:34:00,
2013-07-02 00:40:00,69.6,56.4,29.76,SE,128,10.0,13.0,63,0.00,,,0.00,Wunderground v.1.15,2013-07-02 07:40:00,
2013-07-02 00:45:00,68.8,57.4,29.76,ESE,110,12.0,13.0,67,0.00,,,0.00,Wunderground v.1.15,2013-07-02 07:45:00,
2013-07-02 00:50:00,68.6,57.2,29.76,ESE,121,14.0,14.0,67,0.00,,,0.00,Wunderground v.1.15,2013-07-02 07:50:00,
2013-07-02 00:56:00,69.1,56.8,29.76,SE,128,7.0,14.0,65,0.00,,,0.00,Wunderground v.1.15,2013-07-02 07:56:00,
2013-07-02 01:01:00,69.6,56.0,29.75,ESE,112,8.0,10.0,62,0.00,,,0.00,Wunderground v.1.15,2013-07-02 08:01:00,
2013-07-02 01:06:00,70.2,55.7,29.75,ESE,107,7.0,12.0,60,0.00,,,0.00,Wunderground v.1.15,2013-07-02 08:06:00,
2013-07-02 01:12:00,70.8,55.3,29.75,SE,141,10.0,10.0,58,0.00,,,0.00,Wunderground v.1.15,2013-07-02 08:12:00,
2013-07-02 01:17:00,71.2,55.2,29.75,ESE,118,13.0,13.0,57,0.00,,,0.00,Wunderground v.1.15,2013-07-02 08:17:00,
2013-07-02 01:22:00,71.5,55.0,29.75,ESE,121,11.0,12.0,56,0.00,,,0.00,Wunderground v.1.15,2013-07-02 08:22:00,
2013-07-02 01:28:00,71.7,55.2,29.75,ESE,107,8.0,14.0,56,0.00,,,0.00,Wunderground v.1.15,2013-07-02 08:28:00,
2013-07-02 01:34:00,71.6,55.6,29.76,East,80,10.0,14.0,57,0.00,,,0.00,Wunderground v.1.15,2013-07-02 08:34:00,
2013-07-02 01:40:00,71.6,55.6,29.77,SE,131,9.0,9.0,57,0.00,,,0.00,Wunderground v.1.15,2013-07-02 08:40:00,
2013-07-02 01:45:00,71.4,55.9,29.79,ENE,60,15.0,15.0,58,0.00,,,0.00,Wunderground v.1.15,2013-07-02 08:45:00,
2013-07-02 01:50:00,71.4,55.4,29.82,NE,37,12.0,12.0,57,0.00,,,0.00,Wunderground v.1.15,2013-07-02 08:50:00,
2013-07-02 01:55:00,69.4,57.5,29.84,NE,51,15.0,18.0,66,0.00,,,0.01,Wunderground v.1.15,2013-07-02 08:55:00,
2013-07-02 02:01:00,66.2,58.0,29.85,NE,42,11.0,14.0,75,1.03,,,0.08,Wunderground v.1.15,2013-07-02 09:01:00,
2013-07-02 02:06:00,63.8,57.9,29.84,NE,47,19.0,26.0,81,0.74,,,0.17,Wunderground v.1.15,2013-07-02 09:06:00,
2013-07-02 02:11:00,63.0,58.4,29.83,NE,41,12.0,20.0,85,0.56,,,0.23,Wunderground v.1.15,2013-07-02 09:11:00,
2013-07-02 02:16:00,62.8,58.9,29.82,East,82,14.0,20.0,87,0.21,,,0.25,Wunderground v.1.15,2013-07-02 09:16:00,
2013-07-02 02:21:00,63.0,59.1,29.81,ESE,122,7.0,13.0,87,0.18,,,0.26,Wunderground v.1.15,2013-07-02 09:21:00,
2013-07-02 02:26:00,63.3,59.4,29.80,SE,127,6.0,13.0,87,0.15,,,0.27,Wunderground v.1.15,2013-07-02 09:26:00,
2013-07-02 02:31:00,63.6,59.3,29.80,ENE,62,16.0,23.0,86,0.07,,,0.27,Wunderground v.1.15,2013-07-02 09:31:00,
2013-07-02 02:36:00,64.1,59.5,29.80,ENE,59,9.0,23.0,85,0.04,,,0.27,Wunderground v.1.15,2013-07-02 09:36:00,
2013-07-02 02:41:00,64.5,59.6,29.82,NE,55,13.0,17.0,84,0.00,,,0.27,Wunderground v.1.15,2013-07-02 09:41:00,
2013-07-02 02:46:00,64.4,59.1,29.82,NE,49,16.0,17.0,83,0.00,,,0.28,Wunderground v.1.15,2013-07-02 09:46:00,
2013-07-02 02:51:00,64.6,59.0,29.82,ENE,59,12.0,15.0,82,0.00,,,0.28,Wunderground v.1.15,2013-07-02 09:51:00,
2013-07-02 02:56:00,64.9,58.9,29.81,ENE,70,9.0,18.0,81,0.00,,,0.28,Wunderground v.1.15,2013-07-02 09:56:00,
2013-07-02 03:01:00,64.9,59.6,29.80,ESE,102,5.0,10.0,83,0.00,,,0.28,Wunderground v.1.15,2013-07-02 10:01:00,
2013-07-02 03:06:00,65.2,59.6,29.80,East,88,11.0,14.0,82,0.04,,,0.29,Wunderground v.1.15,2013-07-02 10:06:00,
2013-07-02 03:11:00,65.7,58.7,29.77,SE,140,9.0,12.0,78,0.09,,,0.30,Wunderground v.1.15,2013-07-02 10:11:00,
2013-07-02 03:16:00,65.7,58.7,29.78,ESE,113,7.0,12.0,78,0.15,,,0.31,Wunderground v.1.15,2013-07-02 10:16:00,
2013-07-02 03:21:00,65.6,58.9,29.78,East,87,5.0,13.0,79,0.07,,,0.31,Wunderground v.1.15,2013-07-02 10:21:00,
2013-07-02 03:26:00,65.7,57.9,29.78,ENE,72,10.0,18.0,76,0.04,,,0.31,Wunderground v.1.15,2013-07-02 10:26:00,
2013-07-02 03:31:00,66.0,58.6,29.78,ESE,121,6.0,9.0,77,0.00,,,0.31,Wunderground v.1.15,2013-07-02 10:31:00,
2013-07-02 03:36:00,66.1,58.7,29.77,ESE,105,4.0,9.0,77,0.00,,,0.31,Wunderground v.1.15,2013-07-02 10:36:00,
2013-07-02 03:41:00,67.9,57.4,29.77,ENE,77,6.0,9.0,69,0.00,,,0.31,Wunderground v.1.15,2013-07-02 10:41:00,
2013-07-02 03:46:00,69.0,57.2,29.77,ENE,68,8.0,12.0,66,0.00,,,0.31,Wunderground v.1.15,2013-07-02 10:46:00,
2013-07-02 03:51:00,69.1,56.8,29.77,ENE,78,3.0,7.0,65,0.00,,,0.31,Wunderground v.1.15,2013-07-02 10:51:00,
2013-07-02 03:56:00,69.0,57.2,29.76,West,277,2.0,7.0,66,0.00,,,0.31,Wunderground v.1.15,2013-07-02 10:56:00,
2013-07-02 04:01:00,68.4,57.4,29.77,North,360,5.0,6.0,68,0.00,,,0.31,Wunderground v.1.15,2013-07-02 11:01:00,
2013-07-02 04:06:00,68.0,57.4,29.76,WSW,258,6.0,7.0,69,0.00,,,0.31,Wunderground v.1.15,2013-07-02 11:06:00,
2013-07-02 04:11:00,68.9,56.2,29.75,WNW,294,4.0,5.0,64,0.00,,,0.31,Wunderground v.1.15,2013-07-02 11:11:00,
2013-07-02 04:16:00,68.3,58.5,29.74,WNW,283,4.0,10.0,71,0.00,,,0.31,Wunderground v.1.15,2013-07-02 11:16:00,
2013-07-02 04:21:00,66.9,59.5,29.75,West,264,0.0,4.0,77,0.00,,,0.31,Wunderground v.1.15,2013-07-02 11:21:00,
2013-07-02 04:26:00,66.1,59.0,29.76,SSW,210,5.0,6.0,78,0.00,,,0.31,Wunderground v.1.15,2013-07-02 11:26:00,
2013-07-02 04:31:00,66.1,59.0,29.75,SW,225,8.0,8.0,78,0.00,,,0.32,Wunderground v.1.15,2013-07-02 11:31:00,
2013-07-02 04:36:00,65.6,59.6,29.77,NNW,340,5.0,10.0,81,0.00,,,0.32,Wunderground v.1.15,2013-07-02 11:36:00,
2013-07-02 04:41:00,64.7,59.1,29.76,NW,306,4.0,6.0,82,0.00,,,0.32,Wunderground v.1.15,2013-07-02 11:41:00,
2013-07-02 04:46:00,64.3,59.4,29.79,NE,49,5.0,9.0,84,0.00,,,0.32,Wunderground v.1.15,2013-07-02 11:46:00,
2013-07-02 04:51:00,64.1,59.5,29.80,NNE,17,8.0,11.0,85,0.00,,,0.32,Wunderground v.1.15,2013-07-02 11:51:00,
2013-07-02 04:56:00,64.3,59.7,29.81,North,7,7.0,14.0,85,0.00,,,0.32,Wunderground v.1.15,2013-07-02 11:56:00,
2013-07-02 05:01:00,64.4,59.5,29.81,NNE,13,8.0,13.0,84,0.00,,,0.32,Wunderground v.1.15,2013-07-02 12:01:00,
2013-07-02 05:06:00,64.3,59.4,29.80,NW,309,4.0,13.0,84,0.00,,,0.32,Wunderground v.1.15,2013-07-02 12:06:00,
2013-07-02 05:11:00,64.3,59.4,29.80,NNW,336,3.0,6.0,84,0.00,,,0.32,Wunderground v.1.15,2013-07-02 12:11:00,
2013-07-02 05:16:00,64.2,59.3,29.80,NNE,17,4.0,6.0,84,0.00,,,0.32,Wunderground v.1.15,2013-07-02 12:16:00,
2013-07-02 05:21:00,64.4,59.5,29.80,NNE,13,4.0,5.0,84,0.00,,,0.32,Wunderground v.1.15,2013-07-02 12:21:00,
2013-07-02 05:26:00,64.6,59.3,29.80,NNE,32,2.0,7.0,83,0.00,,,0.32,Wunderground v.1.15,2013-07-02 12:26:00,
2013-07-02 05:31:00,64.7,59.4,29.80,NNE,22,2.0,3.0,83,0.00,,,0.32,Wunderground v.1.15,2013-07-02 12:31:00,
2013-07-02 05:36:00,64.9,59.6,29.80,North,4,1.0,3.0,83,0.00,,,0.32,Wunderground v.1.15,2013-07-02 12:36:00,
2013-07-02 05:41:00,65.0,59.4,29.80,North,1,2.0,3.0,82,0.00,,,0.32,Wunderground v.1.15,2013-07-02 12:41:00,
2013-07-02 05:46:00,65.3,59.0,29.79,WNW,297,5.0,6.0,80,0.00,,,0.32,Wunderground v.1.15,2013-07-02 12:46:00,
2013-07-02 05:51:00,65.7,58.7,29.80,WNW,298,3.0,5.0,78,0.00,,,0.32,Wunderground v.1.15,2013-07-02 12:51:00,
2013-07-02 05:56:00,66.2,58.4,29.80,WNW,303,3.0,6.0,76,0.00,,,0.32,Wunderground v.1.15,2013-07-02 12:56:00,
2013-07-02 06:01:00,66.4,58.6,29.80,West,276,0.0,3.0,76,0.00,,,0.32,Wunderground v.1.15,2013-07-02 13:01:00,
2013-07-02 06:06:00,66.5,59.1,29.80,SSW,207,0.0,3.0,77,0.00,,,0.32,Wunderground v.1.15,2013-07-02 13:06:00,
2013-07-02 06:11:00,66.6,59.2,29.81,East,91,0.0,0.0,77,0.00,,,0.32,Wunderground v.1.15,2013-07-02 13:11:00,
2013-07-02 06:16:00,67.3,57.2,29.81,ESE,108,3.0,6.0,70,0.00,,,0.32,Wunderground v.1.15,2013-07-02 13:16:00,
2013-07-02 06:21:00,67.9,58.5,29.81,South,186,5.0,5.0,72,0.00,,,0.32,Wunderground v.1.15,2013-07-02 13:21:00,
2013-07-02 06:26:00,67.6,59.4,29.81,South,175,3.0,5.0,75,0.00,,,0.32,Wunderground v.1.15,2013-07-02 13:26:00,
2013-07-02 06:31:00,67.9,58.1,29.81,SSE,151,4.0,5.0,71,0.00,,,0.32,Wunderground v.1.15,2013-07-02 13:31:00,
2013-07-02 06:36:00,68.1,58.7,29.81,SSE,157,2.0,5.0,72,0.00,,,0.32,Wunderground v.1.15,2013-07-02 13:36:00,
2013-07-02 06:41:00,68.3,59.3,29.81,SSE,166,2.0,3.0,73,0.00,,,0.32,Wunderground v.1.15,2013-07-02 13:41:00,
2013-07-02 06:46:00,68.3,59.3,29.81,SSW,195,4.0,5.0,73,0.00,,,0.32,Wunderground v.1.15,2013-07-02 13:46:00,
2013-07-02 06:51:00,68.4,60.2,29.81,SSE,153,0.0,2.0,75,0.00,,,0.32,Wunderground v.1.15,2013-07-02 13:51:00,
2013-07-02 06:56:00,68.7,60.1,29.81,SSW,212,0.0,2.0,74,0.00,,,0.32,Wunderground v.1.15,2013-07-02 13:56:00,
2013-07-02 07:01:00,69.2,60.6,29.81,SSE,156,0.0,0.0,74,0.00,,,0.32,Wunderground v.1.15,2013-07-02 14:01:00,
2013-07-02 07:06:00,69.4,60.0,29.81,SSE,160,2.0,4.0,72,0.00,,,0.32,Wunderground v.1.15,2013-07-02 14:06:00,
2013-07-02 07:11:00,69.5,60.5,29.81,SE,141,1.0,1.0,73,0.00,,,0.32,Wunderground v.1.15,2013-07-02 14:11:00,
2013-07-02 07:16:00,69.7,60.7,29.81,SE,141,1.0,2.0,73,0.00,,,0.32,Wunderground v.1.15,2013-07-02 14:16:00,
2013-07-02 07:21:00,69.9,60.5,29.81,SE,128,1.0,2.0,72,0.00,,,0.32,Wunderground v.1.15,2013-07-02 14:21:00,
2013-07-02 07:26:00,70.2,60.7,29.81,SE,124,3.0,4.0,72,0.00,,,0.32,Wunderground v.1.15,2013-07-02 14:26:00,
2013-07-02 07:31:00,70.5,60.2,29.82,SE,143,3.0,4.0,70,0.00,,,0.32,Wunderground v.1.15,2013-07-02 14:31:00,
2013-07-02 07:36:00,71.1,60.8,29.81,South,181,1.0,4.0,70,0.00,,,0.32,Wunderground v.1.15,2013-07-02 14:36:00,
2013-07-02 07:41:00,71.5,59.5,29.81,South,172,2.0,4.0,66,0.00,,,0.32,Wunderground v.1.15,2013-07-02 14:41:00,
2013-07-02 07:46:00,72.0,60.0,29.82,South,169,2.0,4.0,66,0.00,,,0.32,Wunderground v.1.15,2013-07-02 14:46:00,
2013-07-02 07:51:00,72.7,59.4,29.81,SSE,148,1.0,3.0,63,0.00,,,0.32,Wunderground v.1.15,2013-07-02 14:51:00,
2013-07-02 07:56:00,73.3,57.6,29.81,South,172,4.0,5.0,58,0.00,,,0.32,Wunderground v.1.15,2013-07-02 14:56:00,
2013-07-02 08:01:00,73.8,58.6,29.81,South,172,3.0,3.0,59,0.00,,,0.32,Wunderground v.1.15,2013-07-02 15:01:00,
2013-07-02 08:06:00,74.4,58.7,29.81,SSW,200,3.0,5.0,58,0.00,,,0.32,Wunderground v.1.15,2013-07-02 15:06:00,
2013-07-02 08:11:00,74.5,58.8,29.81,ESE,118,4.0,5.0,58,0.00,,,0.32,Wunderground v.1.15,2013-07-02 15:11:00,
2013-07-02 08:16:00,74.8,59.0,29.81,SSW,201,4.0,5.0,58,0.00,,,0.32,Wunderground v.1.15,2013-07-02 15:16:00,
2013-07-02 08:21:00,75.3,57.5,29.81,South,176,2.0,4.0,54,0.00,,,0.32,Wunderground v.1.15,2013-07-02 15:21:00,
2013-07-02 08:26:00,75.9,58.6,29.81,SSE,156,4.0,6.0,55,0.00,,,0.32,Wunderground v.1.15,2013-07-02 15:26:00,
2013-07-02 08:31:00,76.2,57.3,29.82,South,187,3.0,6.0,52,0.00,,,0.32,Wunderground v.1.15,2013-07-02 15:31:00,
2013-07-02 08:36:00,76.3,57.4,29.82,SW,236,7.0,8.0,52,0.00,,,0.32,Wunderground v.1.15,2013-07-02 15:36:00,
2013-07-02 08:41:00,76.4,58.5,29.82,South,177,4.0,5.0,54,0.00,,,0.32,Wunderground v.1.15,2013-07-02 15:41:00,
2013-07-02 08:46:00,76.5,57.6,29.82,SSW,207,0.0,6.0,52,0.00,,,0.32,Wunderground v.1.15,2013-07-02 15:46:00,
2013-07-02 08:51:00,76.9,56.8,29.82,WSW,255,0.0,3.0,50,0.00,,,0.32,Wunderground v.1.15,2013-07-02 15:51:00,
2013-07-02 08:56:00,77.5,57.4,29.82,SSW,201,2.0,4.0,50,0.00,,,0.32,Wunderground v.1.15,2013-07-02 15:56:00,
2013-07-02 09:01:00,77.5,56.8,29.82,SSE,168,0.0,3.0,49,0.00,,,0.32,Wunderground v.1.15,2013-07-02 16:01:00,
2013-07-02 09:06:00,77.8,56.5,29.82,WSW,250,3.0,4.0,48,0.00,,,0.32,Wunderground v.1.15,2013-07-02 16:06:00,
2013-07-02 09:11:00,77.7,56.4,29.82,SSW,204,1.0,2.0,48,0.00,,,0.32,Wunderground v.1.15,2013-07-02 16:11:00,
2013-07-02 09:16:00,78.3,56.4,29.82,SW,217,2.0,3.0,47,0.00,,,0.32,Wunderground v.1.15,2013-07-02 16:16:00,
2013-07-02 09:21:00,78.8,56.9,29.82,SW,224,0.0,1.0,47,0.00,,,0.32,Wunderground v.1.15,2013-07-02 16:21:00,
2013-07-02 09:26:00,78.8,56.3,29.82,SE,144,0.0,2.0,46,0.00,,,0.32,Wunderground v.1.15,2013-07-02 16:26:00,
2013-07-02 09:31:00,79.5,59.2,29.82,SE,131,3.0,4.0,50,0.00,,,0.32,Wunderground v.1.15,2013-07-02 16:31:00,
2013-07-02 09:36:00,79.5,56.3,29.82,East,84,2.0,4.0,45,0.00,,,0.32,Wunderground v.1.15,2013-07-02 16:36:00,
2013-07-02 09:41:00,79.6,57.0,29.83,NW,323,0.0,1.0,46,0.00,,,0.32,Wunderground v.1.15,2013-07-02 16:41:00,
2013-07-02 09:46:00,79.7,56.5,29.82,WNW,287,6.0,8.0,45,0.00,,,0.32,Wunderground v.1.15,2013-07-02 16:46:00,
2013-07-02 09:51:00,80.0,57.4,29.82,ENE,75,3.0,4.0,46,0.00,,,0.32,Wunderground v.1.15,2013-07-02 16:51:00,
2013-07-02 09:56:00,80.3,57.6,29.82,ENE,75,4.0,7.0,46,0.00,,,0.32,Wunderground v.1.15,2013-07-02 16:56:00,
2013-07-02 10:01:00,80.3,57.0,29.82,NE,53,4.0,4.0,45,0.00,,,0.32,Wunderground v.1.15,2013-07-02 17:01:00,
2013-07-02 10:06:00,80.4,57.7,29.82,NE,51,6.0,6.0,46,0.00,,,0.32,Wunderground v.1.15,2013-07-02 17:06:00,
2013-07-02 10:11:00,79.8,56.6,29.82,NW,316,1.0,3.0,45,0.00,,,0.32,Wunderground v.1.15,2013-07-02 17:11:00,
2013-07-02 10:16:00,79.8,55.9,29.82,NW,323,3.0,4.0,44,0.00,,,0.32,Wunderground v.1.15,2013-07-02 17:16:00,
2013-07-02 10:21:00,80.2,56.9,29.82,West,263,2.0,4.0,45,0.00,,,0.32,Wunderground v.1.15,2013-07-02 17:21:00,
2013-07-02 10:26:00,81.0,58.3,29.82,West,281,2.0,6.0,46,0.00,,,0.32,Wunderground v.1.15,2013-07-02 17:26:00,
2013-07-02 10:31:00,80.8,55.6,29.82,WSW,250,1.0,3.0,42,0.00,,,0.32,Wunderground v.1.15,2013-07-02 17:31:00,
2013-07-02 10:36:00,81.0,55.7,29.82,West,271,1.0,5.0,42,0.00,,,0.32,Wunderground v.1.15,2013-07-02 17:36:00,
2013-07-02 10:41:00,81.3,56.0,29.82,NW,316,0.0,6.0,42,0.00,,,0.32,Wunderground v.1.15,2013-07-02 17:41:00,
2013-07-02 10:46:00,81.7,56.4,29.82,WNW,283,1.0,6.0,42,0.00,,,0.32,Wunderground v.1.15,2013-07-02 17:46:00,
2013-07-02 10:51:00,82.3,58.2,29.82,WNW,293,3.0,4.0,44,0.00,,,0.32,Wunderground v.1.15,2013-07-02 17:51:00,
2013-07-02 10:56:00,82.5,57.1,29.81,WNW,283,2.0,7.0,42,0.00,,,0.32,Wunderground v.1.15,2013-07-02 17:56:00,
2013-07-02 11:01:00,82.5,56.4,29.81,NW,325,6.0,7.0,41,0.00,,,0.32,Wunderground v.1.15,2013-07-02 18:01:00,
2013-07-02 11:06:00,82.4,57.0,29.81,North,360,1.0,8.0,42,0.00,,,0.32,Wunderground v.1.15,2013-07-02 18:06:00,
2013-07-02 11:11:00,83.1,58.3,29.81,North,352,3.0,6.0,43,0.00,,,0.32,Wunderground v.1.15,2013-07-02 18:11:00,
2013-07-02 11:16:00,83.2,57.1,29.81,NE,34,3.0,7.0,41,0.00,,,0.32,Wunderground v.1.15,2013-07-02 18:16:00,
2013-07-02 11:21:00,83.1,58.3,29.81,WSW,254,5.0,6.0,43,0.00,,,0.32,Wunderground v.1.15,2013-07-02 18:21:00,
2013-07-02 11:26:00,83.4,57.2,29.80,WSW,253,3.0,9.0,41,0.00,,,0.32,Wunderground v.1.15,2013-07-02 18:26:00,
2013-07-02 11:31:00,83.6,56.0,29.80,West,281,2.0,6.0,39,0.00,,,0.32,Wunderground v.1.15,2013-07-02 18:31:00,
2013-07-02 11:36:00,84.0,57.1,29.80,NW,321,3.0,9.0,40,0.00,,,0.32,Wunderground v.1.15,2013-07-02 18:36:00,
2013-07-02 11:41:00,84.6,56.9,29.80,WSW,240,4.0,8.0,39,0.00,,,0.32,Wunderground v.1.15,2013-07-02 18:41:00,
2013-07-02 11:46:00,84.3,57.3,29.80,WNW,290,4.0,8.0,40,0.00,,,0.32,Wunderground v.1.15,2013-07-02 18:46:00,
2013-07-02 11:51:00,84.4,57.4,29.80,SW,231,2.0,4.0,40,0.00,,,0.32,Wunderground v.1.15,2013-07-02 18:51:00,
2013-07-02 11:56:00,85.1,56.6,29.80,SSW,200,0.0,4.0,38,0.00,,,0.32,Wunderground v.1.15,2013-07-02 18:56:00,
2013-07-02 12:01:00,85.6,57.8,29.79,NW,304,6.0,8.0,39,0.00,,,0.32,Wunderground v.1.15,2013-07-02 19:01:00,
2013-07-02 12:06:00,85.2,57.4,29.79,North,8,0.0,8.0,39,0.00,,,0.32,Wunderground v.1.15,2013-07-02 19:06:00,
2013-07-02 12:11:00,85.3,57.5,29.79,NNW,342,6.0,9.0,39,0.00,,,0.32,Wunderground v.1.15,2013-07-02 19:11:00,
2013-07-02 12:16:00,85.4,56.9,29.78,WNW,303,5.0,9.0,38,0.00,,,0.32,Wunderground v.1.15,2013-07-02 19:16:00,
2013-07-02 12:21:00,85.4,56.9,29.78,NNW,330,4.0,7.0,38,0.00,,,0.32,Wunderground v.1.15,2013-07-02 19:21:00,
2013-07-02 12:26:00,85.4,56.2,29.78,SSE,167,0.0,7.0,37,0.00,,,0.32,Wunderground v.1.15,2013-07-02 19:26:00,
2013-07-02 12:31:00,86.3,57.0,29.78,West,266,3.0,3.0,37,0.00,,,0.32,Wunderground v.1.15,2013-07-02 19:31:00,
2013-07-02 12:36:00,86.7,56.6,29.77,West,273,1.0,4.0,36,0.00,,,0.32,Wunderground v.1.15,2013-07-02 19:36:00,
2013-07-02 12:41:00,86.6,56.5,29.77,NNW,343,0.0,5.0,36,0.00,,,0.32,Wunderground v.1.15,2013-07-02 19:41:00,
2013-07-02 12:46:00,86.8,56.6,29.77,North,11,3.0,6.0,36,0.00,,,0.32,Wunderground v.1.15,2013-07-02 19:46:00,
2013-07-02 12:51:00,86.7,56.6,29.76,NW,322,0.0,4.0,36,0.00,,,0.32,Wunderground v.1.15,2013-07-02 19:51:00,
2013-07-02 12:56:00,86.7,56.6,29.76,NW,326,5.0,8.0,36,0.00,,,0.32,Wunderground v.1.15,2013-07-02 19:56:00,
2013-07-02 13:01:00,86.5,56.4,29.76,NNW,340,2.0,5.0,36,0.00,,,0.32,Wunderground v.1.15,2013-07-02 20:01:00,
2013-07-02 13:06:00,86.9,56.7,29.76,North,9,5.0,7.0,36,0.00,,,0.32,Wunderground v.1.15,2013-07-02 20:06:00,
2013-07-02 13:11:00,86.9,56.7,29.76,North,354,2.0,6.0,36,0.00,,,0.32,Wunderground v.1.15,2013-07-02 20:11:00,
2013-07-02 13:16:00,87.4,56.4,29.75,SSE,157,0.0,6.0,35,0.00,,,0.32,Wunderground v.1.15,2013-07-02 20:16:00,
2013-07-02 13:21:00,88.0,56.9,29.75,NE,49,4.0,7.0,35,0.00,,,0.32,Wunderground v.1.15,2013-07-02 20:21:00,
2013-07-02 13:26:00,88.3,55.6,29.75,WNW,297,3.0,8.0,33,0.00,,,0.32,Wunderground v.1.15,2013-07-02 20:26:00,
2013-07-02 13:31:00,88.0,54.4,29.74,WNW,293,4.0,4.0,32,0.00,,,0.32,Wunderground v.1.15,2013-07-02 20:31:00,
2013-07-02 13:36:00,87.9,55.2,29.74,WSW,255,3.0,5.0,33,0.00,,,0.32,Wunderground v.1.15,2013-07-02 20:36:00,
2013-07-02 13:41:00,87.8,55.1,29.74,SE,136,1.0,3.0,33,0.00,,,0.32,Wunderground v.1.15,2013-07-02 20:41:00,
2013-07-02 13:46:00,88.4,55.6,29.74,NE,44,3.0,5.0,33,0.00,,,0.32,Wunderground v.1.15,2013-07-02 20:46:00,
2013-07-02 13:51:00,88.6,55.8,29.74,East,85,2.0,4.0,33,0.00,,,0.32,Wunderground v.1.15,2013-07-02 20:51:00,
2013-07-02 13:56:00,88.7,56.7,29.73,NW,304,0.0,6.0,34,0.00,,,0.32,Wunderground v.1.15,2013-07-02 20:56:00,
2013-07-02 14:01:00,89.0,57.0,29.73,NNW,347,4.0,5.0,34,0.00,,,0.32,Wunderground v.1.15,2013-07-02 21:01:00,
2013-07-02 14:06:00,89.2,56.3,29.73,East,90,1.0,7.0,33,0.00,,,0.32,Wunderground v.1.15,2013-07-02 21:06:00,
2013-07-02 14:11:00,89.0,56.2,29.73,SE,135,1.0,6.0,33,0.00,,,0.32,Wunderground v.1.15,2013-07-02 21:11:00,
2013-07-02 14:16:00,89.8,57.7,29.73,NNW,344,4.0,6.0,34,0.00,,,0.32,Wunderground v.1.15,2013-07-02 21:16:00,
2013-07-02 14:21:00,89.8,56.9,29.72,NW,321,7.0,7.0,33,0.00,,,0.32,Wunderground v.1.15,2013-07-02 21:21:00,
2013-07-02 14:26:00,90.2,57.2,29.72,NW,304,10.0,12.0,33,0.00,,,0.32,Wunderground v.1.15,2013-07-02 21:26:00,
2013-07-02 14:31:00,90.3,56.4,29.72,West,266,2.0,7.0,32,0.00,,,0.32,Wunderground v.1.15,2013-07-02 21:31:00,
2013-07-02 14:36:00,90.2,55.5,29.71,SW,221,1.0,7.0,31,0.00,,,0.32,Wunderground v.1.15,2013-07-02 21:36:00,
2013-07-02 14:41:00,90.0,55.3,29.71,WSW,255,9.0,11.0,31,0.00,,,0.32,Wunderground v.1.15,2013-07-02 21:41:00,
2013-07-02 14:46:00,89.7,55.0,29.71,NE,37,1.0,11.0,31,0.00,,,0.32,Wunderground v.1.15,2013-07-02 21:46:00,
2013-07-02 14:51:00,90.4,55.6,29.70,SE,131,0.0,5.0,31,0.00,,,0.32,Wunderground v.1.15,2013-07-02 21:51:00,
2013-07-02 14:56:00,91.3,55.5,29.70,WNW,293,2.0,11.0,30,0.00,,,0.32,Wunderground v.1.15,2013-07-02 21:56:00,
2013-07-02 15:01:00,91.6,53.9,29.70,WSW,238,3.0,10.0,28,0.00,,,0.32,Wunderground v.1.15,2013-07-02 22:01:00,
2013-07-02 15:06:00,91.5,53.8,29.70,South,177,0.0,10.0,28,0.00,,,0.32,Wunderground v.1.15,2013-07-02 22:06:00,
2013-07-02 15:11:00,91.9,54.1,29.69,NW,304,4.0,4.0,28,0.00,,,0.32,Wunderground v.1.15,2013-07-02 22:11:00,
2013-07-02 15:16:00,91.7,54.9,29.69,NW,323,4.0,6.0,29,0.00,,,0.32,Wunderground v.1.15,2013-07-02 22:16:00,
2013-07-02 15:21:00,91.5,53.8,29.69,WNW,301,5.0,6.0,28,0.00,,,0.32,Wunderground v.1.15,2013-07-02 22:21:00,
2013-07-02 15:26:00,91.1,53.5,29.69,WSW,248,1.0,7.0,28,0.00,,,0.32,Wunderground v.1.15,2013-07-02 22:26:00,
2013-07-02 15:31:00,90.7,54.1,29.69,NE,39,3.0,3.0,29,0.00,,,0.32,Wunderground v.1.15,2013-07-02 22:31:00,
2013-07-02 15:36:00,90.3,53.7,29.68,NW,321,1.0,8.0,29,0.00,,,0.32,Wunderground v.1.15,2013-07-02 22:36:00,
2013-07-02 15:41:00,90.5,53.9,29.68,North,352,2.0,4.0,29,0.00,,,0.32,Wunderground v.1.15,2013-07-02 22:41:00,
2013-07-02 15:46:00,90.8,53.2,29.68,North,8,8.0,9.0,28,0.00,,,0.32,Wunderground v.1.15,2013-07-02 22:46:00,
2013-07-02 15:51:00,91.2,51.5,29.67,WNW,286,5.0,11.0,26,0.00,,,0.32,Wunderground v.1.15,2013-07-02 22:51:00,
2013-07-02 15:56:00,91.0,52.4,29.67,North,6,5.0,11.0,27,0.00,,,0.32,Wunderground v.1.15,2013-07-02 22:56:00,
2013-07-02 16:01:00,91.3,52.6,29.67,North,3,8.0,8.0,27,0.00,,,0.32,Wunderground v.1.15,2013-07-02 23:01:00,
2013-07-02 16:06:00,91.6,52.9,29.67,WSW,257,9.0,9.0,27,0.00,,,0.32,Wunderground v.1.15,2013-07-02 23:06:00,
2013-07-02 16:11:00,91.5,51.8,29.67,SW,233,0.0,6.0,26,0.00,,,0.32,Wunderground v.1.15,2013-07-02 23:11:00,
2013-07-02 16:16:00,91.6,53.9,29.67,WNW,283,4.0,9.0,28,0.00,,,0.32,Wunderground v.1.15,2013-07-02 23:16:00,
2013-07-02 16:21:00,91.3,51.6,29.67,WSW,245,3.0,9.0,26,0.00,,,0.32,Wunderground v.1.15,2013-07-02 23:21:00,
2013-07-02 16:26:00,91.8,52.0,29.67,NNW,342,2.0,9.0,26,0.00,,,0.32,Wunderground v.1.15,2013-07-02 23:26:00,
2013-07-02 16:29:00,91.6,51.9,29.67,West,268,4.0,9.0,26,0.00,,,0.32,Wunderground v.1.15,2013-07-02 23:29:00,
2013-07-02 16:34:00,91.6,52.9,29.67,WNW,289,4.0,7.0,27,0.00,,,0.32,Wunderground v.1.15,2013-07-02 23:34:00,
2013-07-02 16:39:00,91.8,51.0,29.67,West,281,3.0,7.0,25,0.00,,,0.32,Wunderground v.1.15,2013-07-02 23:39:00,
2013-07-02 16:44:00,91.7,50.9,29.67,NW,313,2.0,12.0,25,0.00,,,0.32,Wunderground v.1.15,2013-07-02 23:44:00,
2013-07-02 16:49:00,91.4,50.6,29.66,ENE,77,2.0,12.0,25,0.00,,,0.32,Wunderground v.1.15,2013-07-02 23:49:00,
2013-07-02 16:54:00,91.6,51.9,29.66,SW,234,3.0,9.0,26,0.00,,,0.32,Wunderground v.1.15,2013-07-02 23:54:00,
2013-07-02 16:59:00,91.8,51.0,29.66,WSW,253,4.0,11.0,25,0.00,,,0.32,Wunderground v.1.15,2013-07-02 23:59:00,
2013-07-02 17:01:00,91.9,52.1,29.66,WSW,245,2.0,5.0,26,0.00,,,0.32,Wunderground v.1.15,2013-07-03 00:01:00,
2013-07-02 17:06:00,92.0,52.2,29.66,NW,314,4.0,6.0,26,0.00,,,0.32,Wunderground v.1.15,2013-07-03 00:06:00,
2013-07-02 17:11:00,91.8,52.0,29.66,WNW,296,5.0,10.0,26,0.00,,,0.32,Wunderground v.1.15,2013-07-03 00:11:00,
2013-07-02 17:16:00,91.6,51.9,29.66,WNW,287,3.0,10.0,26,0.00,,,0.32,Wunderground v.1.15,2013-07-03 00:16:00,
2013-07-02 17:21:00,91.4,52.7,29.66,West,281,8.0,9.0,27,0.00,,,0.32,Wunderground v.1.15,2013-07-03 00:21:00,
2013-07-02 17:23:00,91.1,51.4,29.66,NW,321,5.0,9.0,26,0.00,,,0.32,Wunderground v.1.15,2013-07-03 00:23:00,
2013-07-02 17:24:00,91.0,52.4,29.66,NW,306,2.0,9.0,27,0.00,,,0.32,Wunderground v.1.15,2013-07-03 00:24:00,
2013-07-02 17:28:00,91.0,51.4,29.66,North,352,0.0,9.0,26,0.00,,,0.32,Wunderground v.1.15,2013-07-03 00:28:00,
2013-07-02 17:33:00,91.3,52.6,29.66,WNW,284,4.0,6.0,27,0.00,,,0.32,Wunderground v.1.15,2013-07-03 00:33:00,
2013-07-02 17:38:00,91.0,52.4,29.66,NNW,345,0.0,9.0,27,0.00,,,0.32,Wunderground v.1.15,2013-07-03 00:38:00,
2013-07-02 17:43:00,91.1,52.5,29.67,NW,321,1.0,8.0,27,0.00,,,0.32,Wunderground v.1.15,2013-07-03 00:43:00,
2013-07-02 17:48:00,91.1,52.5,29.67,NNW,332,0.0,8.0,27,0.00,,,0.32,Wunderground v.1.15,2013-07-03 00:48:00,
2013-07-02 17:53:00,90.9,52.3,29.67,West,277,6.0,9.0,27,0.00,,,0.32,Wunderground v.1.15,2013-07-03 00:53:00,
2013-07-02 17:59:00,90.8,51.2,29.66,West,280,2.0,9.0,26,0.00,,,0.32,Wunderground v.1.15,2013-07-03 00:59:00,
2013-07-02 18:00:00,90.7,51.1,29.66,WNW,288,2.0,5.0,26,0.00,,,0.32,Wunderground v.1.15,2013-07-03 01:00:00,
2013-07-02 18:04:00,90.7,52.1,29.67,WNW,286,0.0,5.0,27,0.00,,,0.32,Wunderground v.1.15,2013-07-03 01:04:00,
2013-07-02 18:09:00,91.2,51.5,29.67,WNW,301,4.0,7.0,26,0.00,,,0.32,Wunderground v.1.15,2013-07-03 01:09:00,
2013-07-02 18:14:00,91.1,51.4,29.67,West,260,1.0,4.0,26,0.00,,,0.32,Wunderground v.1.15,2013-07-03 01:14:00,
2013-07-02 18:19:00,91.1,51.4,29.67,West,280,1.0,4.0,26,0.00,,,0.32,Wunderground v.1.15,2013-07-03 01:19:00,
2013-07-02 18:24:00,90.8,52.2,29.67,West,267,4.0,5.0,27,0.00,,,0.32,Wunderground v.1.15,2013-07-03 01:24:00,
2013-07-02 18:26:00,90.5,50.9,29.67,WSW,255,3.0,5.0,26,0.00,,,0.32,Wunderground v.1.15,2013-07-03 01:26:00,
2013-07-02 18:31:00,90.2,51.7,29.67,WNW,291,3.0,6.0,27,0.00,,,0.32,Wunderground v.1.15,2013-07-03 01:31:00,
2013-07-02 18:36:00,90.0,51.5,29.67,West,274,1.0,6.0,27,0.00,,,0.32,Wunderground v.1.15,2013-07-03 01:36:00,
2013-07-02 18:41:00,90.0,51.5,29.67,NW,323,0.0,3.0,27,0.00,,,0.32,Wunderground v.1.15,2013-07-03 01:41:00,
2013-07-02 18:46:00,89.9,52.4,29.67,NW,323,1.0,3.0,28,0.00,,,0.32,Wunderground v.1.15,2013-07-03 01:46:00,
2013-07-02 18:49:00,89.6,52.2,29.67,NW,318,3.0,5.0,28,0.00,,,0.32,Wunderground v.1.15,2013-07-03 01:49:00,
2013-07-02 18:50:00,89.3,51.9,29.67,NNW,330,4.0,4.0,28,0.00,,,0.32,Wunderground v.1.15,2013-07-03 01:50:00,
2013-07-02 18:55:00,88.5,51.2,29.67,NW,326,3.0,5.0,28,0.00,,,0.32,Wunderground v.1.15,2013-07-03 01:55:00,
2013-07-02 19:00:00,88.0,51.8,29.67,NW,314,1.0,3.0,29,0.00,,,0.32,Wunderground v.1.15,2013-07-03 02:00:00,
2013-07-02 19:06:00,87.7,52.4,29.67,NNW,335,0.0,3.0,30,0.00,,,0.32,Wunderground v.1.15,2013-07-03 02:06:00,
2013-07-02 19:11:00,87.4,53.1,29.67,NW,321,1.0,1.0,31,0.00,,,0.32,Wunderground v.1.15,2013-07-03 02:11:00,
2013-07-02 19:16:00,87.0,52.7,29.68,NW,306,0.0,2.0,31,0.00,,,0.32,Wunderground v.1.15,2013-07-03 02:16:00,
2013-07-02 19:22:00,86.9,53.5,29.68,NNW,331,1.0,2.0,32,0.00,,,0.32,Wunderground v.1.15,2013-07-03 02:22:00,
2013-07-02 19:27:00,86.7,54.2,29.69,NW,320,2.0,2.0,33,0.00,,,0.32,Wunderground v.1.15,2013-07-03 02:27:00,
2013-07-02 19:32:00,86.5,54.8,29.69,NW,323,2.0,4.0,34,0.00,,,0.32,Wunderground v.1.15,2013-07-03 02:32:00,
2013-07-02 19:38:00,86.4,54.7,29.69,NNW,334,3.0,4.0,34,0.00,,,0.32,Wunderground v.1.15,2013-07-03 02:38:00,
2013-07-02 19:43:00,86.3,54.6,29.70,NW,316,2.0,4.0,34,0.00,,,0.32,Wunderground v.1.15,2013-07-03 02:43:00,
2013-07-02 19:46:00,86.3,53.8,29.70,NW,307,4.0,6.0,33,0.00,,,0.32,Wunderground v.1.15,2013-07-03 02:46:00,
2013-07-02 19:51:00,86.3,54.6,29.70,NW,306,2.0,4.0,34,0.00,,,0.32,Wunderground v.1.15,2013-07-03 02:51:00,
2013-07-02 19:56:00,86.1,54.5,29.70,NW,304,5.0,10.0,34,0.00,,,0.32,Wunderground v.1.15,2013-07-03 02:56:00,
2013-07-02 20:02:00,86.0,53.5,29.71,NW,318,18.0,18.0,33,0.00,,,0.32,Wunderground v.1.15,2013-07-03 03:02:00,
2013-07-02 20:07:00,81.9,53.1,29.71,NNW,329,21.0,27.0,37,0.00,,,0.32,Wunderground v.1.15,2013-07-03 03:07:00,
2013-07-02 20:12:00,79.6,53.8,29.73,North,5,15.0,23.0,41,0.00,,,0.32,Wunderground v.1.15,2013-07-03 03:12:00,
2013-07-02 20:17:00,78.8,53.1,29.73,NNE,24,14.0,27.0,41,0.00,,,0.32,Wunderground v.1.15,2013-07-03 03:17:00,
2013-07-02 20:20:00,78.5,52.8,29.74,ENE,65,19.0,19.0,41,0.00,,,0.32,Wunderground v.1.15,2013-07-03 03:20:00,
2013-07-02 20:25:00,77.7,52.8,29.73,NE,54,16.0,23.0,42,0.00,,,0.32,Wunderground v.1.15,2013-07-03 03:25:00,
2013-07-02 20:30:00,76.5,54.2,29.73,ENE,63,10.0,19.0,46,0.00,,,0.32,Wunderground v.1.15,2013-07-03 03:30:00,
2013-07-02 20:35:00,75.0,54.5,29.72,East,89,21.0,30.0,49,0.00,,,0.32,Wunderground v.1.15,2013-07-03 03:35:00,
2013-07-02 20:36:00,74.8,54.4,29.72,NE,49,17.0,30.0,49,0.00,,,0.32,Wunderground v.1.15,2013-07-03 03:36:00,
2013-07-02 20:39:00,74.2,53.8,29.73,ENE,75,16.0,30.0,49,0.00,,,0.32,Wunderground v.1.15,2013-07-03 03:39:00,
2013-07-02 20:44:00,74.7,53.7,29.72,NE,45,11.0,29.0,48,0.00,,,0.32,Wunderground v.1.15,2013-07-03 03:44:00,
2013-07-02 20:49:00,75.3,53.7,29.73,NE,46,12.0,29.0,47,0.00,,,0.32,Wunderground v.1.15,2013-07-03 03:49:00,
2013-07-02 20:55:00,75.8,53.5,29.73,NE,44,20.0,21.0,46,0.00,,,0.32,Wunderground v.1.15,2013-07-03 03:55:00,
2013-07-02 21:00:00,75.5,53.9,29.75,NNE,14,22.0,22.0,47,0.00,,,0.32,Wunderground v.1.15,2013-07-03 04:00:00,
2013-07-02 21:01:00,75.5,53.9,29.75,NNE,25,20.0,22.0,47,0.00,,,0.32,Wunderground v.1.15,2013-07-03 04:01:00,
2013-07-02 21:03:00,75.0,54.5,29.76,NNE,32,14.0,24.0,49,0.00,,,0.32,Wunderground v.1.15,2013-07-03 04:03:00,
2013-07-02 21:04:00,74.9,54.4,29.76,NNE,29,12.0,24.0,49,0.00,,,0.32,Wunderground v.1.15,2013-07-03 04:04:00,
2013-07-02 21:09:00,74.6,54.2,29.75,NE,42,13.0,24.0,49,0.00,,,0.32,Wunderground v.1.15,2013-07-03 04:09:00,
2013-07-02 21:14:00,74.8,54.4,29.75,NE,56,13.0,25.0,49,0.00,,,0.32,Wunderground v.1.15,2013-07-03 04:14:00,
2013-07-02 21:19:00,75.0,54.5,29.74,NE,49,11.0,27.0,49,0.00,,,0.32,Wunderground v.1.15,2013-07-03 04:19:00,
2013-07-02 21:24:00,75.2,53.6,29.75,NE,49,14.0,22.0,47,0.00,,,0.32,Wunderground v.1.15,2013-07-03 04:24:00,
2013-07-02 21:29:00,75.8,53.5,29.75,NE,46,8.0,22.0,46,0.00,,,0.32,Wunderground v.1.15,2013-07-03 04:29:00,
2013-07-02 21:31:00,76.0,53.7,29.75,NE,42,7.0,13.0,46,0.00,,,0.32,Wunderground v.1.15,2013-07-03 04:31:00,
2013-07-02 21:32:00,76.0,53.7,29.75,NE,53,7.0,13.0,46,0.00,,,0.32,Wunderground v.1.15,2013-07-03 04:32:00,
2013-07-02 21:37:00,76.2,53.9,29.75,ENE,57,9.0,13.0,46,0.00,,,0.32,Wunderground v.1.15,2013-07-03 04:37:00,
2013-07-02 21:42:00,75.4,54.9,29.77,NNE,24,14.0,22.0,49,0.00,,,0.32,Wunderground v.1.15,2013-07-03 04:42:00,
2013-07-02 21:45:00,74.7,54.8,29.78,ENE,59,13.0,22.0,50,0.00,,,0.32,Wunderground v.1.15,2013-07-03 04:45:00,
2013-07-02 21:46:00,74.6,54.7,29.79,NNE,32,12.0,22.0,50,0.00,,,0.32,Wunderground v.1.15,2013-07-03 04:46:00,
2013-07-02 21:51:00,74.0,55.8,29.80,NNW,338,13.0,21.0,53,0.00,,,0.32,Wunderground v.1.15,2013-07-03 04:51:00,
2013-07-02 21:53:00,73.1,56.5,29.80,NE,35,14.0,24.0,56,0.00,,,0.32,Wunderground v.1.15,2013-07-03 04:53:00,
2013-07-02 21:58:00,72.3,55.7,29.80,North,6,7.0,24.0,56,0.00,,,0.32,Wunderground v.1.15,2013-07-03 04:58:00,
2013-07-02 22:03:00,71.9,55.8,29.81,NNE,15,15.0,23.0,57,0.00,,,0.32,Wunderground v.1.15,2013-07-03 05:03:00,
2013-07-02 22:07:00,71.3,57.2,29.82,ENE,63,14.0,23.0,61,0.00,,,0.32,Wunderground v.1.15,2013-07-03 05:07:00,
2013-07-02 22:12:00,69.9,57.6,29.82,NNE,20,19.0,23.0,65,0.00,,,0.32,Wunderground v.1.15,2013-07-03 05:12:00,
2013-07-02 22:17:00,69.4,57.5,29.82,NE,37,17.0,23.0,66,0.00,,,0.32,Wunderground v.1.15,2013-07-03 05:17:00,
2013-07-02 22:19:00,69.3,57.0,29.82,NE,49,18.0,23.0,65,0.00,,,0.32,Wunderground v.1.15,2013-07-03 05:19:00,
2013-07-02 22:24:00,69.6,56.9,29.82,North,354,15.0,24.0,64,0.00,,,0.32,Wunderground v.1.15,2013-07-03 05:24:00,
2013-07-02 22:30:00,69.8,56.6,29.82,North,11,21.0,21.0,63,0.00,,,0.32,Wunderground v.1.15,2013-07-03 05:30:00,
2013-07-02 22:35:00,69.9,56.3,29.83,NE,39,16.0,21.0,62,0.00,,,0.32,Wunderground v.1.15,2013-07-03 05:35:00,
2013-07-02 22:40:00,70.5,55.9,29.84,NNE,33,8.0,15.0,60,0.00,,,0.32,Wunderground v.1.15,2013-07-03 05:40:00,
2013-07-02 22:46:00,71.0,55.0,29.83,NE,44,9.0,18.0,57,0.00,,,0.32,Wunderground v.1.15,2013-07-03 05:46:00,
2013-07-02 22:51:00,71.6,54.6,29.83,NE,41,11.0,13.0,55,0.00,,,0.32,Wunderground v.1.15,2013-07-03 05:51:00,
2013-07-02 22:54:00,71.8,54.3,29.82,ENE,57,15.0,20.0,54,0.00,,,0.32,Wunderground v.1.15,2013-07-03 05:54:00,
2013-07-02 22:57:00,72.1,54.0,29.82,NE,49,14.0,20.0,53,0.00,,,0.32,Wunderground v.1.15,2013-07-03 05:57:00,
2013-07-02 22:58:00,72.1,54.0,29.82,NE,48,14.0,20.0,53,0.00,,,0.32,Wunderground v.1.15,2013-07-03 05:58:00,
2013-07-02 23:03:00,72.0,54.4,29.81,NE,46,8.0,16.0,54,0.00,,,0.32,Wunderground v.1.15,2013-07-03 06:03:00,
2013-07-02 23:04:00,71.8,54.8,29.81,ENE,65,10.0,16.0,55,0.00,,,0.32,Wunderground v.1.15,2013-07-03 06:04:00,
2013-07-02 23:10:00,71.7,54.2,29.79,NE,48,10.0,16.0,54,0.00,,,0.32,Wunderground v.1.15,2013-07-03 06:10:00,
2013-07-02 23:13:00,71.6,54.1,29.77,ENE,75,15.0,19.0,54,0.00,,,0.32,Wunderground v.1.15,2013-07-03 06:13:00,
2013-07-02 23:16:00,71.8,53.2,29.78,ENE,58,11.0,19.0,52,0.00,,,0.32,Wunderground v.1.15,2013-07-03 06:16:00,
2013-07-02 23:17:00,72.0,53.9,29.77,ENE,69,7.0,19.0,53,0.00,,,0.32,Wunderground v.1.15,2013-07-03 06:17:00,
2013-07-02 23:22:00,71.6,53.6,29.75,ENE,59,5.0,11.0,53,0.00,,,0.32,Wunderground v.1.15,2013-07-03 06:22:00,
2013-07-02 23:24:00,71.9,53.8,29.75,SSE,156,6.0,12.0,53,0.00,,,0.32,Wunderground v.1.15,2013-07-03 06:24:00,
2013-07-02 23:26:00,72.3,53.7,29.75,NE,46,11.0,12.0,52,0.00,,,0.32,Wunderground v.1.15,2013-07-03 06:26:00,
2013-07-02 23:32:00,73.3,54.1,29.75,ENE,60,9.0,15.0,51,0.00,,,0.32,Wunderground v.1.15,2013-07-03 06:32:00,
2013-07-02 23:37:00,72.8,54.7,29.76,East,86,5.0,15.0,53,0.00,,,0.32,Wunderground v.1.15,2013-07-03 06:37:00,
2013-07-02 23:42:00,73.1,53.4,29.76,ENE,65,11.0,14.0,50,0.00,,,0.32,Wunderground v.1.15,2013-07-03 06:42:00,
2013-07-02 23:45:00,73.3,51.8,29.76,NE,55,8.0,14.0,47,0.00,,,0.32,Wunderground v.1.15,2013-07-03 06:45:00,
2013-07-02 23:50:00,74.0,51.3,29.76,ENE,65,13.0,13.0,45,0.00,,,0.32,Wunderground v.1.15,2013-07-03 06:50:00,
2013-07-02 23:56:00,74.9,50.3,29.77,SW,226,4.0,14.0,42,0.00,,,0.32,Wunderground v.1.15,2013-07-03 06:56:00,